Theta_e
321 323 324 324 323 322 320 318 316 315 315 314 314 314 315 315 315 315 315 316 315 316 316 315 315 315 317 319 319 318 318 317 318 318 318 318 319 319 318 319 319 318 317 315 315 315 316 316 317 316 315 315 314 314 315 317 317 319 325 322 320 325 321 322 325 318 315 316 315 312 311 312 313 312 311 312 311 310 311 311 311 311 311 312 312 312 311 311
322 323 323 323 322 320 319 317 316 315 315 314 314 315 315 316 316 316 315 315 316 316 316 316 316 316 318 319 318 317 317 318 318 317 317 318 318 319 318 318 318 318 317 315 314 315 317 317 317 316 316 314 313 314 316 318 318 321 324 319 325 332 320 317 319 315 314 314 314 312 311 311 311 311 310 312 311 310 310 311 311 310 311 312 311 311 311 311
322 323 322 322 321 319 318 316 315 314 314 314 314 315 315 315 315 315 315 316 316 317 317 317 317 317 319 318 317 318 317 317 317 316 317 316 317 318 317 318 317 318 317 315 314 314 316 318 316 316 316 314 313 314 316 318 318 317 317 320 331 329 317 313 313 313 314 314 312 310 311 310 310 310 310 311 310 310 310 311 311 310 312 313 312 311 311 311
322 322 321 321 319 318 316 315 314 314 314 314 314 315 315 315 315 315 315 316 317 317 316 317 317 318 319 318 318 318 317 317 317 316 316 316 317 318 317 317 317 317 317 314 313 314 316 317 316 317 317 314 312 313 314 316 318 315 314 323 326 317 314 314 312 314 313 312 311 309 310 310 311 311 310 310 311 312 312 312 312 312 313 313 312 311 311 311
321 321 320 319 317 316 315 314 313 313 314 314 314 315 315 315 314 314 315 316 317 317 316 316 317 318 319 318 318 318 318 318 318 316 316 317 318 317 316 316 317 317 316 314 312 313 317 316 316 317 316 314 313 314 314 314 315 315 314 317 316 311 313 314 312 313 313 312 310 308 310 311 311 311 310 310 311 312 314 314 313 313 314 312 312 311 311 311
319 318 317 316 315 314 313 313 313 313 314 314 315 316 315 315 314 314 315 316 316 316 315 316 317 318 319 318 318 318 319 319 318 317 317 317 318 316 315 316 316 316 316 313 312 314 316 316 316 316 313 314 314 314 314 313 313 316 316 312 312 311 311 312 312 312 312 310 309 309 311 311 310 311 311 310 310 313 316 316 313 313 313 312 312 311 311 311
315 315 315 314 313 313 312 313 313 313 313 314 316 316 315 314 314 314 315 315 316 315 315 315 316 318 318 318 318 318 318 318 317 316 317 316 316 315 316 316 316 316 315 313 312 313 315 314 315 314 313 316 314 312 312 311 310 314 316 313 312 312 310 312 312 312 312 309 309 310 310 309 310 311 310 309 312 315 317 315 313 314 313 312 312 311 312 311
314 313 313 313 313 312 313 313 313 313 314 315 316 316 315 313 314 315 314 314 315 314 314 315 316 317 317 317 317 318 317 317 317 316 316 316 316 316 316 316 316 316 314 312 311 312 314 313 314 314 314 316 313 312 311 310 311 312 314 312 311 311 311 312 311 311 311 310 310 309 308 309 310 310 309 310 314 317 317 315 314 315 314 313 313 313 313 312
313 313 313 312 312 312 313 313 313 313 314 315 316 315 314 313 313 314 314 314 313 313 313 314 316 316 317 317 317 319 317 316 317 316 316 316 317 316 316 316 316 316 313 312 312 312 314 313 313 314 315 314 312 312 310 311 314 311 311 310 309 310 311 311 310 311 311 310 309 308 308 309 309 310 309 312 316 318 317 316 316 315 315 315 315 315 314 312
313 313 313 312 312 312 313 312 312 313 314 315 315 315 314 313 313 313 313 313 312 312 312 313 316 317 317 317 318 319 317 316 317 317 317 318 317 317 317 317 317 316 313 313 313 313 314 314 314 314 314 312 311 311 309 311 313 310 309 309 309 309 310 310 310 311 311 310 310 309 310 309 308 310 312 314 316 317 316 316 316 314 314 316 316 316 316 315
314 313 312 312 312 312 312 312 313 314 315 315 315 315 314 313 312 312 312 312 312 312 312 315 317 317 317 318 318 318 317 317 318 317 318 318 318 318 317 318 318 316 315 315 315 314 314 315 315 314 315 313 311 313 311 310 311 309 309 309 309 309 310 310 310 310 310 312 311 308 310 309 308 309 311 313 315 316 315 316 316 314 314 316 317 317 316 316
314 313 312 312 312 312 312 313 313 314 314 315 315 315 314 313 312 312 312 312 312 313 314 316 318 318 318 318 317 317 317 318 318 318 318 318 318 318 317 318 317 316 316 316 315 315 316 316 315 314 315 313 312 313 313 311 310 310 309 311 312 312 314 312 310 309 308 313 312 309 312 312 311 310 311 313 314 315 313 313 315 315 315 316 317 316 316 316
314 313 312 312 313 312 313 313 314 314 314 315 314 314 314 312 311 312 312 312 312 313 315 318 318 318 318 318 317 317 317 318 318 317 318 318 317 317 317 317 316 316 316 316 315 315 316 315 313 313 313 312 312 313 313 310 309 310 309 310 313 314 318 315 311 310 309 312 311 311 315 315 314 313 312 313 314 314 312 311 314 315 315 316 316 316 316 316
314 313 312 312 313 312 313 313 314 314 314 314 313 313 314 312 311 312 312 312 312 313 316 318 318 318 318 317 317 317 317 318 317 317 317 317 317 317 316 316 316 316 316 315 315 315 315 314 312 311 311 311 311 311 312 311 313 314 311 314 317 315 320 318 312 312 313 313 310 311 316 315 315 314 313 314 314 313 310 311 313 314 314 315 315 316 316 315
314 312 313 313 313 313 313 313 314 314 314 314 313 312 313 312 311 312 312 312 313 313 317 319 317 318 318 316 317 317 317 317 317 317 317 317 316 316 315 315 315 315 315 315 315 315 314 312 310 310 310 310 311 311 314 319 322 320 315 320 323 317 317 318 312 311 314 314 309 311 317 315 315 314 313 314 313 313 310 311 312 312 313 314 314 314 315 315
314 313 313 313 313 313 313 314 314 314 314 314 312 311 313 312 312 313 312 312 313 314 318 318 316 318 318 316 317 317 317 317 317 317 316 316 315 316 315 314 314 314 314 314 314 314 313 311 310 310 310 310 314 316 317 322 328 327 319 319 322 318 316 316 314 310 309 311 309 311 315 314 314 314 314 313 312 312 311 311 312 311 312 312 313 314 314 315
314 313 313 313 313 312 313 314 314 314 314 312 311 311 311 311 313 314 311 312 313 315 319 317 315 319 318 317 317 317 317 317 316 316 315 315 315 315 315 313 313 313 313 314 314 314 312 311 310 311 313 312 316 322 320 319 322 325 320 317 319 318 315 315 315 312 308 310 312 313 312 313 313 313 313 313 313 312 310 310 312 312 312 312 313 313 313 314
314 313 313 313 312 313 313 313 313 314 313 310 309 309 310 312 315 315 313 313 313 316 320 317 316 320 318 316 318 317 317 316 316 316 315 314 314 314 315 313 312 312 313 314 313 314 312 311 312 318 321 319 319 320 319 318 318 318 317 316 316 315 314 315 315 314 312 312 313 313 313 313 313 313 313 314 314 312 310 312 312 312 312 312 312 313 313 313
314 313 313 312 312 313 313 313 313 312 311 310 309 308 309 312 314 314 315 314 312 315 319 316 316 320 318 317 318 317 316 316 316 316 315 314 314 314 314 313 313 312 313 313 313 313 311 314 318 322 322 320 318 315 315 316 314 315 315 314 314 314 314 313 313 313 312 313 313 313 314 313 313 313 313 314 313 312 312 312 311 311 311 312 312 312 313 313
314 313 313 313 313 313 313 312 310 309 309 308 308 308 310 313 314 313 313 313 312 313 315 315 315 317 317 317 317 316 316 316 316 316 315 314 313 315 314 312 313 314 313 313 314 311 311 317 322 321 319 318 317 315 313 313 311 313 315 315 314 314 314 312 313 313 311 313 314 314 314 313 313 313 313 313 313 313 313 312 312 311 311 311 312 313 313 314
313 313 313 313 313 312 312 310 308 308 307 306 307 307 308 310 314 313 312 313 312 313 316 316 317 317 316 317 315 315 315 316 316 315 315 315 314 315 314 313 314 315 313 310 312 313 313 317 321 320 318 316 316 316 314 312 311 313 315 316 315 313 314 313 313 313 311 312 314 314 314 313 313 313 313 313 314 314 313 313 313 313 313 313 313 314 315 315
314 314 313 314 313 312 310 308 307 307 305 306 306 306 307 307 310 311 312 316 314 313 318 318 317 316 315 315 315 315 315 315 315 316 315 314 315 315 313 313 315 315 313 311 313 318 318 319 320 317 313 313 315 316 315 312 312 314 315 316 315 314 314 314 313 314 313 313 314 313 314 313 313 313 313 313 313 313 314 314 314 314 314 314 314 315 315 315
314 314 314 314 313 311 308 307 307 307 305 306 306 305 305 305 308 310 313 317 317 313 317 318 316 315 315 315 315 315 315 315 315 315 315 314 315 314 311 313 315 314 315 314 314 316 318 320 318 311 308 312 314 316 316 314 313 316 316 316 315 315 314 315 314 314 313 313 313 313 313 313 313 313 314 314 314 314 314 315 314 314 314 314 315 315 314 315
314 314 314 314 313 310 307 306 307 306 305 305 305 304 304 304 308 311 312 314 316 314 315 317 315 314 315 316 316 316 315 314 314 314 314 314 313 313 311 311 312 314 315 313 311 314 317 316 311 309 312 314 314 317 318 316 315 316 317 316 315 315 315 315 314 313 312 313 313 313 314 315 314 315 315 315 315 315 314 314 314 314 314 314 314 314 314 314
314 314 314 313 313 309 306 307 306 305 305 305 305 304 304 304 307 312 313 314 317 317 316 317 316 314 315 316 316 315 314 314 314 314 313 313 313 312 312 310 310 316 318 312 311 314 315 311 308 312 317 315 314 317 317 315 315 316 317 317 316 316 316 315 314 313 313 315 314 315 317 318 317 316 316 315 315 315 314 314 314 314 314 313 313 313 313 312
314 314 313 313 312 308 306 307 305 304 305 305 304 304 304 304 308 312 315 318 319 318 317 316 316 315 315 315 316 314 315 315 313 312 312 312 312 310 312 312 310 314 315 311 312 316 316 311 311 314 315 315 316 316 316 315 314 316 318 317 316 316 315 316 315 313 315 316 314 314 315 316 317 315 315 315 315 315 314 314 314 314 313 313 312 311 310 309
314 313 312 312 310 306 305 305 304 304 305 304 304 304 303 305 310 311 313 320 319 314 317 316 315 316 314 314 314 312 313 314 311 311 311 312 312 310 312 314 312 313 310 309 315 320 318 315 315 316 314 314 316 315 316 316 314 317 320 316 316 316 315 315 314 313 314 314 313 313 314 315 315 314 314 314 314 314 314 314 314 313 312 311 309 308 308 307
313 312 311 311 307 305 305 304 304 304 304 304 303 303 303 306 312 312 314 320 317 313 316 315 313 315 313 312 312 311 310 311 311 312 312 311 310 309 311 312 312 314 309 308 314 317 315 315 315 315 313 313 314 314 316 316 313 319 321 315 314 314 312 313 314 312 312 313 314 313 314 315 315 314 314 315 315 314 314 314 314 313 310 308 308 307 307 306
312 312 310 308 305 304 304 304 304 304 303 304 303 303 304 308 313 314 317 318 314 312 314 313 315 315 313 312 311 310 310 311 311 312 311 309 308 310 311 310 308 310 309 307 310 311 311 312 311 311 312 313 314 313 314 315 314 316 316 312 312 312 311 312 313 312 312 313 314 313 313 315 315 313 314 315 315 314 314 314 313 310 308 308 308 307 305 304
311 310 308 305 304 303 303 304 304 303 303 303 303 304 306 311 315 316 321 319 311 310 313 314 316 314 312 312 310 309 310 310 311 310 308 306 308 309 310 309 306 308 313 312 311 311 309 309 308 308 310 312 314 312 311 312 311 311 313 313 314 313 311 313 312 311 313 314 314 313 313 314 315 314 313 315 314 313 313 312 311 309 308 308 307 305 304 303
309 307 305 304 303 303 303 303 303 303 303 303 304 306 307 313 318 317 319 317 311 312 315 316 316 314 313 312 312 312 310 309 309 308 307 308 311 311 309 310 309 312 319 318 316 314 310 311 312 310 309 310 312 312 309 308 308 310 314 314 312 312 312 314 314 312 314 315 313 313 314 314 314 313 313 315 313 312 312 310 310 310 309 307 305 303 302 301
306 305 304 303 302 302 303 302 303 303 303 304 305 307 310 313 316 320 320 316 313 315 315 314 314 314 314 312 312 311 310 310 309 307 308 310 312 312 310 309 309 313 318 316 313 314 314 318 316 310 309 309 311 312 309 310 313 312 313 313 312 312 313 314 314 312 313 313 310 310 312 311 311 310 310 312 310 310 310 308 309 310 308 305 303 301 300 300
304 303 302 302 302 302 302 302 303 302 304 307 306 309 317 316 317 322 320 316 313 312 313 314 315 315 314 311 311 311 310 310 307 305 308 309 311 313 311 308 308 311 314 313 312 312 315 318 315 311 310 308 309 311 310 312 313 310 311 312 312 312 312 313 312 311 311 310 308 309 310 309 309 309 310 311 309 307 307 307 308 307 305 302 300 300 300 300
303 302 301 302 301 301 302 302 302 304 304 306 306 309 313 314 317 318 316 318 317 313 314 314 314 315 314 311 310 310 311 310 306 307 310 311 312 314 312 309 309 310 312 313 313 312 311 311 313 312 309 309 310 309 309 310 309 310 311 311 310 310 311 311 311 310 310 309 309 310 310 310 309 309 310 310 306 304 303 305 305 303 301 299 299 299 300 300
302 301 301 301 301 301 302 301 303 305 303 304 309 310 308 311 316 314 314 319 317 315 316 313 313 315 316 316 311 307 307 307 307 309 312 312 311 311 311 309 308 310 312 312 312 312 311 311 312 310 308 310 310 306 306 308 309 311 311 309 308 307 307 308 309 310 309 308 309 309 309 309 308 309 310 306 302 300 301 302 302 300 299 299 299 299 300 301
301 301 301 301 301 301 302 302 304 305 303 307 310 308 308 313 315 313 314 314 313 316 317 315 316 316 316 318 315 309 305 304 306 308 310 312 310 309 309 306 306 307 309 311 312 312 311 311 311 309 308 308 306 304 305 306 307 310 310 308 306 305 305 307 308 309 308 307 307 306 307 307 305 307 307 302 299 298 299 300 300 299 299 299 299 299 300 300
301 301 301 301 301 301 303 304 305 305 305 307 308 310 313 311 309 312 314 311 311 316 316 314 315 314 314 315 316 314 308 305 307 308 310 312 310 308 308 306 304 304 304 307 310 310 309 309 308 307 308 306 302 302 303 303 304 308 309 307 304 304 305 306 305 304 304 304 305 305 305 304 303 305 304 299 297 298 299 299 298 298 299 299 299 300 299 299
300 300 300 300 300 302 304 306 306 306 305 306 309 315 314 307 304 308 311 310 310 314 316 316 315 313 313 313 313 313 308 305 307 309 310 311 308 306 307 306 303 301 301 304 308 309 309 309 307 305 308 306 301 302 305 305 304 304 305 303 302 302 302 301 302 302 303 304 305 304 304 304 305 305 300 296 296 298 299 298 298 298 298 299 299 299 298 297
300 299 300 301 302 304 306 307 307 306 306 307 311 313 310 309 310 308 310 311 309 312 315 315 313 312 312 311 310 310 307 305 308 308 308 310 308 304 302 303 302 300 301 303 306 307 308 308 307 305 306 302 300 304 307 305 302 300 300 299 299 301 301 301 302 302 302 303 303 302 301 301 303 301 297 296 298 298 298 297 297 298 298 299 298 298 297 297
299 300 303 305 306 307 306 307 308 307 308 309 312 313 310 311 312 309 310 311 309 310 313 312 311 311 311 310 307 307 307 308 309 308 308 310 309 303 298 299 300 299 300 301 302 304 306 307 305 303 302 299 298 303 304 300 299 297 297 296 298 299 300 299 299 299 300 298 297 297 296 297 298 297 297 298 298 298 297 297 298 298 298 298 297 297 297 296
301 301 303 306 307 307 307 309 310 310 312 312 310 313 313 312 311 311 310 311 310 309 309 311 311 310 311 309 307 307 308 308 308 307 309 311 309 304 299 298 298 299 300 302 302 302 304 305 303 300 299 297 298 301 300 298 297 297 296 297 298 297 297 296 295 296 297 296 295 296 295 296 297 298 298 298 298 297 297 297 298 298 298 297 297 297 296 296
302 302 305 307 307 308 309 310 309 309 314 314 309 311 313 311 310 310 308 308 309 308 307 309 309 309 310 309 308 308 308 308 307 306 308 307 306 304 299 296 297 298 299 301 301 300 301 302 301 299 298 297 298 298 297 296 297 297 297 297 296 295 294 295 294 295 295 295 295 296 296 296 297 299 298 297 297 297 297 298 298 298 298 297 297 296 296 295
301 303 307 308 307 309 308 307 307 308 312 312 308 308 310 309 308 308 307 307 307 306 308 309 306 306 307 306 305 306 305 306 307 307 307 305 302 299 296 296 296 297 298 300 300 299 299 299 299 297 296 296 296 296 296 297 296 295 295 295 295 294 294 295 295 295 295 295 295 295 295 296 297 298 297 296 297 297 297 297 297 297 297 297 297 296 295 295
300 302 306 307 308 309 307 305 307 311 310 307 307 308 307 307 307 307 307 306 305 305 307 307 304 304 304 302 302 304 303 304 305 306 306 305 301 296 295 296 296 296 298 299 298 298 298 299 298 296 294 293 294 294 295 296 295 294 294 294 295 295 295 295 294 295 294 294 294 295 295 295 296 297 296 296 297 297 296 297 297 297 297 297 296 295 295 294
301 302 305 306 307 309 307 304 307 311 310 307 307 308 306 305 304 305 305 303 302 302 304 303 302 302 302 301 302 303 303 302 304 304 303 302 300 296 295 296 296 295 296 297 297 298 298 298 297 295 293 292 292 293 293 294 294 294 294 294 294 295 295 294 294 294 294 294 294 295 295 295 295 296 296 296 296 295 295 296 297 297 297 296 296 295 294 294
301 302 304 304 306 307 306 304 304 309 310 307 306 307 307 305 303 302 302 301 300 299 300 301 300 301 302 302 302 303 302 302 303 302 299 300 300 297 296 295 295 295 295 297 297 297 297 297 296 295 295 294 293 293 294 294 294 294 294 294 294 295 294 294 294 294 294 294 294 295 295 295 296 295 295 295 294 294 294 296 297 297 297 296 296 295 294 293
301 302 303 304 306 305 304 304 303 305 306 305 305 305 305 306 304 301 301 301 300 299 299 299 300 302 303 302 302 303 301 300 300 299 298 298 298 297 295 295 294 295 297 298 296 295 296 296 294 295 295 294 294 294 294 295 294 294 294 294 294 294 294 294 294 294 294 294 294 295 295 295 294 293 293 293 293 294 295 296 296 296 296 296 295 294 293 293
300 301 302 303 305 305 305 304 303 304 303 303 305 305 305 305 305 303 301 300 299 299 298 298 299 301 301 301 301 302 300 299 298 298 298 298 297 296 295 295 294 295 296 296 295 295 295 294 293 294 294 294 294 294 294 294 294 294 294 294 294 294 294 294 293 293 293 294 294 294 293 293 292 291 292 292 293 294 295 295 295 296 296 296 295 293 293 293
299 300 301 302 303 304 304 303 303 304 304 304 305 306 306 306 305 304 301 300 301 300 298 298 299 298 298 299 300 300 300 298 298 298 297 297 296 295 295 295 295 295 294 294 294 294 294 294 295 294 294 294 294 294 294 294 294 294 294 294 293 293 293 293 293 293 293 293 292 292 291 291 291 292 292 293 294 294 294 294 294 295 296 295 294 293 293 293
299 299 300 302 302 302 302 302 302 303 303 304 305 305 305 305 305 304 301 301 303 301 298 299 299 297 297 299 298 298 298 298 298 298 296 295 294 295 296 296 295 294 294 293 294 294 294 295 295 294 294 294 294 294 294 294 294 293 293 293 293 293 293 293 293 292 291 291 290 290 291 291 291 292 293 293 294 293 294 294 294 294 295 294 293 293 293 293
299 299 299 301 302 302 301 301 301 303 303 303 304 304 305 305 304 303 300 299 300 300 299 299 298 296 296 297 297 297 296 295 296 296 295 294 294 294 295 295 294 294 293 293 293 294 294 295 295 294 294 294 293 294 294 293 293 293 293 293 293 293 292 292 291 291 290 290 290 290 291 291 291 292 292 293 293 293 293 293 293 294 295 294 293 293 293 293
299 299 299 299 301 301 301 300 301 302 303 303 303 303 303 303 301 300 300 297 296 297 297 297 295 295 296 296 296 296 295 293 294 293 293 293 293 293 293 293 293 293 293 293 293 294 294 294 294 294 294 294 294 293 293 293 293 293 293 293 292 291 291 290 290 290 290 290 290 290 291 291 291 292 292 292 293 293 293 293 293 294 294 293 293 293 293 293
Wind_Speed
14 15 16 17 19 19 20 21 22 23 25 26 28 29 30 31 32 32 32 32 31 30 29 27 26 25 24 21 19 19 15 9 8 10 10 10 8 8 9 10 10 11 12 10 8 7 6 7 10 11 10 9 8 7 6 4 2 1 3 2 3 2 4 5 7 6 2 6 7 7 8 6 9 12 11 13 15 18 20 26 27 24 29 31 31 31 28 26
14 16 17 18 19 20 21 22 23 24 27 28 29 30 31 32 32 32 32 31 31 29 28 27 26 24 20 20 21 20 12 8 9 9 10 10 9 9 9 10 11 12 13 11 10 8 8 9 11 12 12 10 7 5 4 3 1 2 3 1 4 5 6 6 7 7 5 9 11 13 15 9 12 12 7 8 13 13 13 23 24 22 29 29 29 32 31 30
16 17 18 19 19 20 22 23 25 26 28 29 30 31 31 32 31 31 31 29 29 26 26 26 27 24 18 21 23 19 10 6 7 8 7 10 10 10 9 10 12 13 14 12 10 8 9 11 11 13 13 9 5 4 3 2 2 1 2 2 6 6 5 7 10 12 14 16 12 14 15 11 16 14 6 6 12 13 10 19 17 18 26 22 21 24 27 30
17 18 18 19 20 21 23 24 27 28 29 30 30 31 31 32 31 30 29 27 25 24 25 25 25 24 18 21 22 16 7 4 5 6 4 10 11 9 9 12 15 15 14 13 10 8 8 10 10 12 12 7 5 4 2 3 3 2 4 5 7 3 4 11 13 17 19 17 13 13 10 11 20 16 10 7 9 12 15 23 19 18 25 20 19 19 20 25
17 18 18 19 20 22 24 26 28 29 29 30 31 31 31 32 31 29 28 26 24 23 26 24 22 22 19 21 20 14 5 3 5 7 7 11 10 9 11 15 17 16 14 12 11 8 8 9 9 12 10 5 5 3 1 3 3 2 6 11 11 3 5 15 16 18 20 15 14 12 7 13 17 13 16 10 5 15 25 31 24 23 29 24 23 22 21 24
17 18 18 19 21 23 25 27 28 29 29 30 31 31 31 31 29 28 26 25 24 25 28 25 21 20 19 21 18 11 6 4 7 10 9 10 8 10 14 16 18 16 13 12 11 8 9 10 10 11 8 4 2 2 3 2 5 4 7 11 15 10 8 17 19 21 21 13 12 11 9 16 15 13 20 16 18 31 40 39 32 33 35 31 30 27 27 28
17 18 18 20 22 23 26 27 28 29 30 30 30 31 32 31 28 26 25 26 26 26 28 27 23 19 18 20 17 9 10 9 9 10 9 9 9 12 14 16 16 14 12 11 10 9 11 11 10 10 6 3 2 3 5 5 6 5 7 9 16 15 12 21 22 24 26 19 21 21 14 16 17 14 13 20 34 44 44 40 38 38 36 33 33 31 31 31
16 17 19 20 22 24 26 27 28 29 29 30 30 31 31 29 27 25 26 28 28 28 29 29 26 24 20 18 15 8 10 12 10 9 8 9 10 12 14 15 15 13 11 10 10 10 12 10 10 10 5 3 4 5 5 6 4 6 6 9 15 18 19 26 27 30 32 27 27 21 13 20 28 18 10 27 45 44 40 40 37 34 31 30 29 29 29 30
17 18 19 20 22 24 26 27 28 29 29 30 29 30 30 27 26 25 28 31 30 30 30 29 28 26 19 15 13 6 8 12 11 10 10 10 11 12 13 14 14 14 10 9 10 10 11 9 9 9 6 7 6 6 3 4 2 5 7 10 13 21 27 30 28 31 31 27 23 11 11 23 30 18 13 33 42 36 34 35 33 28 24 24 25 26 28 29
17 18 19 20 22 24 26 27 28 29 29 29 29 30 28 26 25 25 29 33 33 32 30 28 26 21 15 12 10 6 7 13 12 10 10 10 11 11 12 13 14 13 9 8 9 10 11 10 10 10 9 8 5 6 3 1 3 4 9 13 17 23 29 28 25 29 27 23 19 8 12 21 20 10 10 27 30 28 30 28 29 26 23 24 24 25 25 29
18 19 19 21 22 24 26 27 28 29 29 29 29 29 28 25 25 25 29 34 35 32 28 25 21 17 12 10 10 7 7 13 12 9 10 10 9 10 12 13 12 11 9 10 10 12 14 13 12 9 6 5 5 9 6 4 7 9 9 11 16 18 22 23 19 20 15 11 13 8 13 17 9 9 15 27 23 23 28 27 27 27 28 28 27 28 25 27
18 19 20 21 23 24 26 27 29 30 30 30 29 29 28 26 25 25 29 35 35 30 26 22 17 14 9 9 10 7 7 14 12 10 11 10 10 11 12 11 10 10 12 12 12 14 15 14 11 6 5 5 6 6 5 9 12 12 7 6 9 9 12 17 10 9 5 4 13 13 12 12 3 10 21 25 19 21 27 27 28 29 31 31 30 32 30 29
18 19 21 22 24 25 26 28 29 30 30 30 29 29 29 27 26 25 29 36 34 28 23 19 16 12 6 8 7 5 9 15 14 12 12 11 10 11 11 10 10 10 11 12 13 13 13 12 9 6 6 5 3 4 10 15 13 9 3 1 5 7 6 9 5 8 7 6 11 12 9 13 9 13 16 18 18 22 25 26 29 30 30 32 33 35 35 34
19 20 21 23 25 26 27 28 30 31 31 31 29 29 29 28 27 25 29 36 33 27 22 16 15 11 5 6 5 8 11 15 14 12 12 12 12 11 11 11 11 10 10 11 12 12 12 11 8 5 4 4 5 7 11 11 6 4 2 1 3 5 6 7 6 7 7 5 4 6 7 14 17 18 12 12 16 17 20 25 28 30 32 33 36 38 39 40
20 21 21 23 25 26 28 29 31 32 31 31 29 29 30 29 29 25 29 36 32 26 18 13 15 8 6 5 4 11 14 14 13 13 14 16 16 15 13 13 12 11 11 10 11 12 12 10 6 3 2 3 3 4 6 5 4 3 3 4 3 2 7 10 7 4 4 5 2 4 8 13 18 22 18 10 11 13 20 28 30 30 34 36 38 40 42 43
20 21 22 24 25 27 29 30 31 32 31 31 29 29 29 28 29 25 29 36 31 23 12 9 15 5 6 4 5 12 16 14 14 14 18 19 18 18 14 15 15 12 12 10 9 10 11 7 4 3 2 1 1 3 4 4 4 3 3 5 6 5 8 10 7 5 5 4 3 2 7 13 16 24 34 27 17 17 21 27 32 31 34 36 38 40 41 44
21 21 22 24 26 27 30 31 32 31 31 31 29 29 28 27 28 24 31 35 28 20 8 7 15 4 5 7 6 13 16 13 13 14 19 21 20 18 13 16 19 15 13 10 8 10 9 5 3 2 2 3 2 4 6 5 5 5 2 4 6 6 6 8 9 6 2 2 3 4 8 17 19 22 42 43 23 16 20 25 32 32 32 36 37 39 40 42
21 22 23 24 26 28 30 31 32 31 31 30 29 30 26 25 26 25 32 35 27 17 4 9 14 5 3 10 9 15 14 9 10 12 18 22 21 19 13 17 23 17 14 9 7 10 9 4 2 1 4 5 3 5 4 5 5 7 6 6 7 6 7 8 9 8 7 8 7 5 10 20 22 20 35 45 26 11 19 27 31 30 32 36 36 38 40 41
21 22 23 25 26 28 30 31 32 31 30 29 29 30 27 29 28 25 34 36 25 12 2 11 12 2 4 11 11 14 9 7 10 10 17 22 23 20 13 17 23 16 10 6 7 9 7 4 3 3 5 5 5 2 4 6 3 7 7 6 8 9 11 12 11 8 7 11 12 9 12 18 21 23 29 40 34 18 22 29 28 27 31 34 35 38 40 42
21 22 24 25 26 28 29 30 30 29 29 29 31 30 27 29 23 19 34 36 21 10 5 9 7 4 7 9 11 12 7 7 9 10 17 23 25 19 12 17 20 12 6 3 6 6 5 5 3 4 6 7 8 7 7 3 1 5 7 7 9 8 12 14 14 12 2 3 13 11 12 17 20 24 25 33 37 25 21 24 25 26 28 31 34 37 40 42
21 22 24 25 25 27 28 29 28 27 27 27 29 27 20 19 10 8 23 26 20 14 5 3 2 3 6 6 12 17 12 8 9 12 17 24 26 15 10 15 13 7 4 1 3 3 4 4 6 8 8 8 9 7 5 1 3 4 5 7 9 6 11 15 13 15 3 2 13 11 9 16 20 25 26 27 29 23 20 19 22 27 29 31 32 35 38 40
21 21 23 24 25 26 26 27 26 24 24 24 27 25 17 15 11 8 10 13 19 12 4 5 5 5 9 7 14 20 15 10 10 14 18 25 24 12 9 10 6 4 4 2 3 5 4 3 9 9 5 4 5 6 4 3 5 5 5 4 7 5 8 12 10 13 4 4 10 10 7 15 22 26 25 23 21 22 28 27 27 31 29 31 32 32 34 38
20 21 22 23 24 24 24 25 22 21 22 22 25 23 17 16 15 14 9 7 13 8 3 7 5 7 11 9 14 17 12 9 8 13 22 26 20 12 10 6 3 6 4 3 3 4 4 7 10 4 2 2 3 5 4 4 2 5 5 4 7 8 6 7 9 13 8 4 11 9 5 11 20 23 20 23 24 23 33 36 35 34 26 28 32 30 32 37
20 20 21 22 22 22 23 22 19 19 22 21 22 20 18 18 15 15 9 4 6 5 3 5 5 9 11 11 15 14 12 9 5 13 24 23 16 11 9 3 2 4 3 1 1 4 8 12 9 2 4 4 3 5 6 6 4 3 6 6 7 10 9 8 9 11 10 13 14 7 4 7 13 20 16 19 24 23 30 33 35 35 24 22 30 30 32 35
19 20 20 21 20 20 21 19 16 19 20 19 20 19 18 17 16 14 7 1 3 5 1 2 4 7 9 12 15 14 13 7 8 20 23 17 12 9 8 5 2 3 7 3 2 5 9 9 5 4 3 1 1 6 6 4 5 4 6 9 10 11 11 10 10 8 6 12 11 4 4 5 8 19 18 16 19 20 24 25 28 36 30 21 23 26 29 30
19 19 19 20 18 18 19 15 16 19 18 17 18 19 17 16 16 12 5 2 1 4 1 1 2 4 7 12 15 15 8 4 14 21 15 13 13 8 6 4 1 3 7 2 1 4 5 3 3 3 2 4 3 5 5 2 1 5 4 6 7 8 7 9 9 5 3 10 12 6 7 8 7 17 21 18 20 21 22 22 22 31 33 25 23 27 31 33
19 19 19 18 17 16 16 13 15 16 15 15 17 17 16 15 15 8 4 4 1 3 1 1 2 2 6 12 14 11 4 8 15 13 11 15 13 8 5 4 2 5 4 3 3 3 3 8 6 3 3 3 4 5 4 4 3 5 6 2 5 8 8 10 9 6 5 9 15 12 8 7 8 15 19 16 19 21 18 19 19 22 26 26 30 32 34 35
18 18 17 17 15 14 13 12 13 14 14 14 15 15 14 14 11 5 4 3 2 1 1 2 1 2 9 15 11 7 5 10 7 6 13 15 13 9 4 4 3 7 5 3 4 5 1 6 8 4 5 3 4 5 4 5 3 7 8 5 7 9 8 8 8 9 8 6 13 13 4 4 8 12 12 10 14 18 16 17 16 13 20 27 30 33 35 36
17 17 16 15 13 12 11 11 11 12 13 13 13 13 13 12 8 3 4 1 2 1 1 1 1 2 15 16 9 9 7 5 3 6 13 14 14 11 4 6 3 5 7 3 6 7 3 5 4 1 4 5 5 5 5 5 3 8 7 6 7 6 5 7 8 9 6 5 14 14 5 6 10 10 9 9 11 12 12 12 9 11 21 27 30 35 37 37
17 16 15 14 12 11 10 9 10 11 11 11 11 10 10 8 3 4 3 3 1 1 1 1 0 5 14 11 6 9 6 4 7 9 13 16 17 15 10 9 3 1 6 3 4 7 7 8 5 3 5 4 1 4 5 7 6 6 6 5 5 6 5 6 7 3 0 6 14 14 9 8 11 11 8 6 8 9 9 8 9 12 19 27 30 34 38 39
16 15 14 13 11 10 10 9 8 9 9 9 8 8 7 4 4 2 4 3 1 2 2 2 2 4 7 3 3 6 5 5 8 10 11 13 13 15 13 6 3 4 4 4 5 7 7 7 4 2 1 5 7 7 3 4 5 4 5 5 5 6 5 4 4 1 1 8 10 10 8 7 11 11 6 7 12 14 12 9 9 8 13 23 29 35 39 40
15 14 13 12 11 10 10 8 7 7 6 5 5 5 4 4 2 2 4 3 2 2 2 0 1 3 4 2 1 3 3 3 5 6 5 5 5 7 6 2 3 5 3 4 6 7 5 5 3 2 7 10 8 6 8 8 5 6 5 4 5 4 4 5 5 2 5 10 8 9 10 7 12 13 11 14 14 11 9 9 9 8 11 21 31 37 40 41
14 13 13 12 11 10 9 8 7 6 4 2 1 2 5 3 3 4 3 3 2 1 1 1 1 2 3 3 2 3 2 1 3 6 4 2 3 4 2 3 4 1 3 5 6 8 5 2 3 3 3 10 10 5 6 7 6 8 4 3 4 4 5 7 6 6 8 9 10 13 13 12 13 11 10 9 5 6 9 15 17 16 18 25 33 38 41 43
14 13 13 12 11 11 9 8 7 4 2 1 2 3 3 2 6 3 3 5 4 2 1 2 2 4 2 1 2 2 3 2 3 5 5 3 4 4 4 6 8 3 2 4 4 5 5 5 3 1 1 8 8 3 1 5 8 8 1 1 4 3 5 6 5 7 11 10 12 13 10 9 9 8 7 4 3 9 18 26 30 31 33 36 37 38 41 43
14 13 13 12 12 11 10 8 6 2 1 4 4 3 1 5 5 2 3 5 2 2 2 0 2 4 3 2 2 2 4 1 3 4 4 4 3 3 2 5 8 5 2 3 4 2 5 8 4 1 5 5 5 4 2 4 8 5 0 3 4 3 5 7 8 13 15 13 10 8 8 7 9 12 8 7 10 16 25 31 33 34 38 40 39 38 39 41
14 14 14 13 13 12 10 8 4 1 5 6 4 1 5 5 4 4 3 1 1 1 2 4 4 3 3 3 2 3 3 1 2 3 3 3 2 1 2 3 5 5 2 1 3 2 4 8 6 8 10 5 8 6 7 5 7 5 3 3 4 6 8 7 9 13 13 13 9 7 11 9 11 13 5 11 18 21 24 26 25 29 36 38 35 34 36 39
15 14 14 14 13 12 10 8 4 4 7 6 3 4 5 3 4 4 2 1 1 2 4 3 1 2 1 2 2 3 3 3 2 3 2 2 2 2 3 1 4 5 3 1 1 1 3 10 14 11 7 0 7 14 11 6 4 2 4 5 6 8 6 4 8 8 8 11 8 8 16 14 12 11 5 14 23 25 24 22 21 28 36 36 33 32 34 37
15 14 15 15 15 13 10 7 5 7 8 5 2 5 3 3 4 3 2 2 1 2 5 1 2 2 2 1 2 3 2 3 2 2 2 1 0 3 4 0 5 9 9 4 1 1 3 9 15 8 3 7 13 13 8 3 1 2 3 5 6 6 5 4 7 9 9 10 8 9 15 13 10 7 10 18 26 26 21 18 18 23 27 30 35 39 41 43
14 11 12 13 14 11 8 6 7 9 6 3 3 4 2 2 3 2 3 2 1 2 2 3 2 1 2 3 2 3 1 1 1 0 1 1 1 3 5 1 4 11 11 5 2 3 2 5 11 8 7 11 12 4 2 5 6 6 6 4 2 4 6 4 4 8 9 10 11 10 10 9 7 8 16 23 24 19 15 16 17 18 19 24 31 37 42 44
12 8 8 9 10 9 7 6 8 8 4 2 4 3 1 1 2 3 3 1 1 2 1 2 2 0 2 2 2 1 0 2 3 2 2 1 2 2 4 2 1 6 8 5 4 2 1 2 9 11 12 13 9 3 4 6 9 9 8 6 4 2 4 6 6 8 7 8 10 8 9 10 7 10 17 20 18 13 14 19 18 15 18 23 28 32 36 39
11 5 7 9 9 8 8 7 6 4 2 1 2 2 1 0 1 3 2 2 2 1 2 3 3 3 2 1 2 1 0 2 3 2 3 2 1 2 2 2 1 3 4 5 4 1 0 1 7 11 10 9 8 2 2 8 9 6 4 4 5 5 6 8 8 7 5 8 9 9 12 12 6 7 12 14 15 13 17 21 17 13 17 24 28 30 32 36
11 5 6 9 10 9 10 6 1 1 2 2 2 2 2 1 0 2 1 1 1 1 1 3 2 2 3 1 2 2 0 1 3 3 3 2 1 1 3 4 4 3 2 2 3 3 3 1 4 9 9 12 14 11 10 10 5 3 3 3 5 6 6 6 9 9 7 10 11 9 14 11 4 6 10 12 15 18 24 23 13 12 20 24 26 28 31 35
11 9 8 9 10 11 9 3 1 1 2 2 2 2 2 1 1 1 1 0 0 1 1 1 1 1 1 1 1 2 0 1 3 2 1 1 2 5 6 9 9 5 3 2 4 1 2 0 2 6 9 12 12 6 4 3 3 3 5 4 5 6 6 7 9 9 8 10 10 9 13 8 3 6 11 14 19 24 29 24 11 12 21 22 24 27 30 34
7 7 8 9 10 12 8 2 2 3 3 2 1 2 2 2 2 1 1 1 0 2 1 0 1 1 1 2 2 2 2 1 1 2 1 1 4 9 9 15 12 5 3 2 4 2 2 1 3 4 10 12 8 4 3 4 5 6 7 8 8 11 13 12 9 8 8 10 12 12 12 9 9 12 12 16 22 23 25 24 17 16 19 20 24 28 29 33
3 3 5 7 11 12 7 3 3 3 3 2 1 2 2 2 2 2 2 1 2 3 3 1 1 2 1 2 2 0 1 1 1 1 2 1 2 7 5 18 13 4 4 8 7 2 2 2 2 1 7 11 10 8 8 9 8 7 9 12 13 16 18 15 9 8 10 12 14 13 13 14 16 16 16 19 22 20 21 25 24 22 20 19 24 29 30 33
3 1 2 3 9 13 8 4 2 2 2 3 1 2 4 2 1 3 3 2 2 3 3 1 2 3 2 2 2 2 1 0 1 1 1 2 1 3 6 16 12 9 9 7 2 3 1 3 2 5 8 11 11 10 11 12 10 11 13 13 13 17 20 14 8 9 12 12 13 13 17 21 20 18 19 21 20 19 20 20 21 24 25 24 25 27 31 36
4 2 3 2 4 7 5 5 6 3 2 4 2 1 4 3 0 1 1 1 3 4 4 3 2 2 2 2 1 1 1 2 2 2 3 2 2 3 8 9 8 8 3 3 4 5 2 5 4 7 12 15 13 12 14 13 12 15 16 14 15 20 19 13 11 15 15 13 12 12 19 24 22 20 21 21 20 19 16 15 20 26 28 28 27 29 34 41
7 4 7 6 3 3 2 6 10 7 3 4 3 1 4 4 3 3 2 1 2 3 2 1 2 1 3 4 3 0 1 2 3 2 2 2 3 6 8 6 4 2 5 4 4 3 2 7 8 7 14 18 12 10 13 12 13 15 14 15 19 21 17 15 18 19 16 14 14 16 22 24 21 20 21 21 19 17 18 24 30 31 30 29 28 30 38 44
11 7 7 8 5 4 3 5 11 11 5 4 3 2 5 6 6 3 1 2 1 1 2 3 2 2 2 4 4 1 1 1 3 2 0 2 3 3 4 4 2 5 4 5 6 4 2 5 7 7 12 17 12 8 12 13 14 14 13 16 22 22 19 17 18 18 16 17 19 22 25 24 19 16 18 21 24 24 28 34 34 31 30 28 27 33 41 45
14 11 9 6 3 3 3 4 9 8 5 4 3 3 4 7 7 4 1 2 2 1 2 4 5 5 3 2 4 3 4 4 3 3 1 1 2 1 1 3 2 2 5 5 3 6 4 4 7 7 9 14 13 10 11 13 14 14 15 19 23 21 16 14 15 16 16 19 22 24 24 20 15 15 17 24 31 30 28 31 32 31 29 27 30 40 45 45
18 17 12 4 1 4 5 4 6 5 2 4 4 3 4 7 8 6 1 1 3 3 4 7 7 5 3 3 4 6 7 6 5 6 5 4 5 5 4 5 5 6 7 4 2 3 3 4 6 5 6 10 11 12 15 15 16 16 16 19 19 15 12 13 15 17 19 21 23 21 17 13 12 16 19 24 28 26 22 23 26 27 28 31 38 45 47 46
22 16 12 6 2 5 7 3 2 4 3 5 7 5 4 6 9 10 3 1 2 4 7 12 10 5 3 4 6 7 6 5 5 9 10 11 14 15 14 15 13 8 5 3 3 2 2 3 4 3 4 8 11 15 16 15 14 11 11 14 15 14 16 17 16 18 21 20 17 14 12 12 16 19 20 22 23 22 22 22 23 27 34 41 45 46 47 47
Wind_Direction
21 20 19 18 17 17 16 14 12 10 7 3 1 0 360 359 358 357 355 352 348 343 341 338 338 339 342 350 359 1 5 33 76 82 70 56 40 35 35 20 5 349 337 328 325 318 313 314 310 314 316 317 328 330 341 339 332 32 82 82 299 225 205 197 188 217 240 287 282 285 282 250 274 284 280 287 272 266 275 273 269 262 261 262 264 268 268 270
16 16 14 13 13 13 12 10 8 5 3 1 360 359 359 359 357 357 355 351 346 342 341 338 338 341 346 355 357 358 13 71 81 73 63 40 20 20 27 19 6 350 338 327 321 319 324 328 322 328 333 333 337 326 329 323 322 107 114 128 249 214 212 202 210 234 241 281 283 290 294 274 274 286 291 290 281 283 283 280 278 270 273 273 266 265 265 266
12 12 10 10 9 9 8 7 5 2 1 359 358 359 359 359 357 356 354 350 346 343 342 339 339 342 346 353 352 354 11 90 68 58 52 15 5 7 13 12 2 348 338 325 318 319 327 333 333 342 343 342 344 322 315 295 267 188 144 248 243 221 247 241 245 259 264 277 283 290 295 282 280 285 277 276 293 295 273 276 277 264 278 293 287 275 269 266
9 8 8 8 6 7 6 4 2 0 359 358 358 358 359 358 355 355 354 350 347 344 343 340 340 341 342 347 351 354 5 105 50 37 10 345 351 357 3 2 353 347 339 326 318 316 329 338 340 353 353 340 332 313 273 249 250 185 165 220 232 202 294 266 262 277 280 281 273 277 296 290 288 289 269 264 303 297 273 274 272 269 284 301 303 294 281 271
7 6 6 6 5 5 4 2 0 359 358 357 358 358 358 358 355 355 354 351 349 343 342 342 341 341 339 344 354 357 12 104 21 2 322 329 344 353 355 351 348 346 340 330 319 316 331 343 347 360 359 327 332 336 267 217 204 218 229 241 250 227 271 275 279 288 289 285 274 274 283 282 287 288 272 255 239 268 277 280 279 284 291 295 296 291 282 274
4 4 5 5 5 4 2 1 359 358 358 357 358 358 360 358 354 355 354 352 349 343 343 346 343 343 339 342 357 13 57 74 359 352 333 340 354 348 347 343 346 345 340 331 319 317 327 342 355 0 355 322 335 303 291 251 194 241 269 261 269 259 252 279 285 289 290 283 271 269 272 282 284 282 277 258 242 266 281 283 281 285 288 288 288 284 278 273
3 3 4 4 4 3 1 359 358 358 358 358 359 359 1 359 355 356 355 354 349 343 345 347 346 345 337 342 358 32 62 41 8 6 356 1 354 343 346 344 349 345 339 333 322 322 325 343 4 359 347 331 330 266 300 297 207 220 276 282 288 281 267 282 290 293 291 280 273 274 277 281 272 272 281 267 264 274 284 286 283 286 288 285 283 280 277 274
1 2 3 3 2 1 359 358 357 358 358 358 359 1 3 0 358 358 356 355 350 346 344 345 346 344 337 342 355 22 42 23 17 24 11 8 358 353 355 352 357 350 342 334 326 331 332 350 4 359 349 317 319 290 315 322 240 199 251 282 299 297 289 293 298 296 292 286 282 278 265 262 263 269 268 266 274 280 284 286 287 289 288 283 280 280 278 274
359 360 1 0 359 358 358 357 356 357 357 358 360 3 5 1 360 0 357 355 351 348 345 344 343 342 343 348 357 22 38 24 25 29 24 19 8 4 0 357 359 352 343 335 332 339 340 350 353 353 322 293 308 303 352 3 280 195 256 292 301 297 297 301 300 295 295 293 290 273 251 262 264 272 264 262 273 282 283 285 288 287 282 281 281 282 283 278
357 357 357 356 356 356 356 356 355 356 357 359 0 4 6 1 359 1 358 355 353 350 346 344 343 347 358 7 19 53 49 30 26 23 20 14 7 4 357 351 348 346 345 339 337 336 337 336 331 334 311 292 301 296 286 274 272 255 286 295 290 291 297 300 294 292 298 295 290 263 259 273 258 244 256 263 274 283 282 283 286 283 278 282 283 284 288 285
353 353 353 353 354 355 354 354 354 356 358 359 0 4 4 359 357 0 359 357 355 352 347 345 349 357 10 32 48 66 41 20 16 14 10 5 2 353 343 339 339 339 332 328 323 318 323 323 323 329 307 285 305 298 274 251 289 294 301 295 290 299 300 296 289 294 308 300 302 290 270 279 242 202 245 263 277 280 274 275 278 278 276 280 283 282 284 287
349 348 350 351 352 352 352 352 352 355 357 358 360 1 1 356 355 359 1 358 355 352 347 348 359 4 23 62 63 61 21 8 8 9 360 358 355 340 340 344 343 333 321 319 312 308 316 318 322 322 275 278 307 312 298 303 304 293 296 288 298 335 311 295 295 306 337 300 320 337 296 289 207 210 245 262 275 269 267 266 269 275 276 278 281 280 278 282
345 346 349 349 349 350 350 351 352 354 356 358 358 358 358 354 353 358 1 358 355 352 347 350 3 7 39 81 68 45 6 2 6 3 357 4 3 348 352 356 348 336 325 320 314 313 316 317 322 306 271 267 278 297 301 305 305 290 285 245 312 350 306 294 317 322 335 297 325 1 312 298 289 250 254 274 276 262 263 264 267 275 278 280 282 281 279 279
342 344 346 346 348 348 348 350 351 352 354 356 355 355 356 353 352 356 359 357 354 352 346 349 359 7 68 94 58 22 5 6 8 5 7 14 14 7 5 3 355 348 339 328 321 319 317 320 327 308 271 252 264 293 307 313 321 296 296 44 348 337 286 296 315 317 332 298 341 25 291 291 297 293 297 289 273 259 263 271 273 276 278 281 281 281 281 280
340 341 343 346 348 347 348 348 349 351 352 353 353 353 354 352 351 354 359 357 354 350 344 349 357 13 98 89 36 14 9 13 14 17 20 17 15 11 11 12 5 356 352 339 328 323 320 327 334 316 286 270 287 322 326 330 352 4 343 325 333 304 286 302 302 266 279 281 34 32 287 290 294 302 311 292 277 279 275 281 282 278 278 280 280 281 282 282
336 337 342 346 347 347 347 347 348 348 348 350 350 351 353 352 350 353 359 357 353 348 342 358 2 33 113 44 21 12 7 15 23 30 25 17 12 5 9 16 11 3 357 346 337 332 323 337 356 339 354 353 49 38 7 355 339 7 22 307 297 298 304 317 304 233 226 270 340 302 270 291 295 301 303 294 290 288 276 282 286 283 281 281 282 282 282 284
332 335 341 346 348 348 347 347 347 345 347 348 348 349 351 350 350 355 358 357 354 348 342 5 4 60 97 27 19 358 359 15 24 30 22 15 10 1 4 12 7 0 359 355 350 343 329 348 15 314 15 44 84 63 18 2 325 326 359 294 280 279 291 309 302 287 261 216 258 272 260 280 288 298 297 295 298 285 269 281 289 289 286 284 284 283 282 285
332 335 341 347 349 347 346 345 344 345 346 346 347 349 348 348 354 358 357 356 355 354 353 359 5 104 73 3 354 341 349 17 19 21 16 12 8 0 1 4 359 355 4 6 349 346 334 348 60 322 3 6 16 49 8 308 300 308 311 303 298 287 274 276 280 298 320 291 268 277 276 282 291 296 292 295 306 285 270 285 290 289 288 285 285 283 284 285
331 336 341 347 348 346 344 343 343 345 345 345 348 348 344 350 359 2 358 356 1 9 326 335 355 147 292 332 340 337 344 17 16 15 10 8 4 359 3 2 354 353 15 13 342 350 348 354 36 3 342 319 313 337 255 258 278 287 286 287 295 300 291 281 275 277 295 298 291 282 280 286 294 295 291 297 306 296 283 290 290 287 285 285 285 284 286 286
331 337 341 345 346 344 342 342 344 344 345 348 348 347 352 0 5 360 354 354 0 6 307 307 323 279 302 330 347 353 2 17 14 8 4 3 358 354 0 358 352 358 33 27 316 338 23 13 337 281 274 271 280 266 240 229 157 271 287 283 280 289 290 289 290 289 268 282 289 284 284 288 291 291 289 298 305 302 295 294 292 290 285 284 285 286 288 289
333 337 339 342 343 343 342 343 344 344 349 350 348 356 14 21 19 341 345 345 345 355 353 336 359 346 350 356 3 8 8 360 2 7 3 356 354 351 347 356 360 359 13 70 281 309 40 9 282 251 239 243 264 265 258 237 157 227 270 282 289 282 277 284 289 292 300 166 281 294 298 292 291 289 289 297 301 299 298 296 294 294 290 288 288 288 292 296
332 335 336 338 341 343 342 342 343 345 349 347 351 7 26 23 13 346 336 320 323 342 35 22 54 47 19 21 13 10 6 355 350 360 359 349 350 349 333 357 20 329 330 34 353 334 4 297 260 252 229 212 260 273 275 239 168 195 245 274 293 282 276 288 291 291 300 149 276 305 315 294 289 287 290 294 291 292 295 292 290 291 288 288 289 290 295 300
328 331 333 335 340 342 341 342 343 344 346 349 359 11 14 7 5 356 342 289 303 318 13 17 59 48 30 33 9 5 7 357 334 345 350 342 343 343 331 357 7 315 330 48 19 333 319 266 254 242 167 179 264 290 308 293 182 184 236 275 281 282 290 292 298 305 314 281 275 290 295 285 286 286 289 288 286 292 294 293 292 287 279 282 289 294 297 299
324 329 330 333 339 339 340 341 342 342 346 355 2 5 3 358 359 356 343 278 288 298 336 23 56 47 40 27 6 1 348 338 319 333 339 336 337 335 322 341 4 317 289 125 137 262 269 266 273 64 127 185 256 309 321 307 294 205 214 232 258 276 276 267 293 317 320 295 284 289 274 259 276 282 284 287 291 295 295 297 297 292 288 289 294 297 300 303
321 326 327 332 336 337 339 341 341 344 348 356 359 358 358 352 353 356 350 318 294 294 298 59 41 43 36 19 11 354 331 330 341 333 332 336 339 328 315 328 29 294 278 251 176 256 268 266 289 52 89 83 1 300 298 283 299 301 226 217 234 258 271 277 299 328 332 295 292 334 301 251 262 278 281 288 292 295 297 299 299 300 308 313 312 317 326 335
318 322 325 329 332 335 338 341 344 346 348 352 354 356 353 345 349 356 5 48 290 293 41 86 7 24 15 8 6 356 343 340 336 331 341 353 342 331 319 323 47 286 281 253 181 267 282 303 46 63 319 337 350 286 280 202 286 301 242 201 224 247 269 281 289 309 297 281 289 302 282 270 269 276 278 284 288 289 292 294 296 301 311 332 358 6 7 9
316 319 322 324 330 334 336 343 344 344 348 349 351 352 346 343 348 350 6 31 320 295 29 40 5 70 11 359 2 10 347 310 326 335 3 0 343 338 307 302 334 288 292 45 335 272 289 321 340 10 343 344 331 296 256 159 151 264 255 243 283 280 281 280 281 277 252 275 286 276 261 269 270 269 272 277 282 283 285 290 292 301 323 358 21 20 13 9
313 315 318 320 326 331 335 341 342 346 349 347 349 347 342 342 342 0 44 9 305 336 108 3 77 135 357 354 3 17 313 305 331 350 358 1 349 342 287 270 298 277 297 57 292 282 259 299 300 339 360 320 274 265 212 157 169 262 268 284 287 278 276 278 277 271 269 285 282 275 265 268 264 267 274 272 274 281 285 287 291 318 357 14 13 4 2 359
308 311 312 314 321 326 330 336 340 346 348 348 348 341 340 339 334 41 71 290 303 56 154 327 160 318 347 354 358 1 344 328 4 334 346 4 351 342 305 285 283 272 291 211 241 277 271 276 275 355 315 264 252 252 191 160 234 277 292 299 288 281 265 260 264 271 283 270 268 276 285 273 273 272 279 275 267 277 285 290 316 2 7 3 356 352 351 348
302 305 306 308 314 317 321 329 340 346 347 346 344 339 340 338 4 42 345 255 272 6 137 69 338 333 351 360 347 352 4 349 1 357 353 359 348 344 339 311 291 297 302 271 255 273 287 296 273 224 247 222 331 309 202 189 254 296 325 322 310 303 280 257 263 271 56 253 263 276 274 262 277 274 264 268 276 297 307 318 350 4 354 349 348 345 343 341
297 299 299 303 307 311 315 322 338 347 345 344 342 343 343 346 71 75 272 246 246 315 76 68 334 356 2 8 306 336 356 342 8 24 1 353 346 348 358 352 351 2 340 335 312 295 311 305 253 209 59 65 22 343 302 261 290 342 352 339 330 304 299 303 298 91 178 262 266 281 281 252 265 276 279 286 298 314 326 342 351 347 341 341 341 340 338 338
292 292 293 298 302 306 309 314 334 343 342 345 339 350 13 8 23 206 252 329 349 306 79 133 309 1 336 325 239 314 330 338 18 36 4 353 350 347 11 30 337 342 345 336 321 315 304 265 258 63 74 53 22 347 334 324 344 5 333 339 344 308 313 310 302 286 246 263 278 300 313 283 263 280 295 295 307 328 344 353 342 328 332 336 337 337 337 339
284 285 289 292 296 298 299 309 327 338 341 340 316 46 70 39 282 224 238 310 281 259 75 177 281 293 297 331 342 323 343 358 16 13 354 21 19 345 337 354 360 326 289 318 326 330 310 255 360 20 58 22 17 20 336 319 339 333 313 31 354 314 309 289 284 285 266 272 291 294 302 290 273 284 297 298 336 15 355 344 339 336 335 335 338 339 340 342
276 279 282 285 288 287 293 307 315 333 336 214 153 66 43 282 258 228 233 251 251 333 62 155 309 321 327 343 305 345 27 347 7 17 356 16 24 344 326 359 14 24 308 325 328 331 312 296 340 54 322 357 11 37 284 290 313 308 264 34 321 307 306 296 301 297 285 287 288 281 279 278 280 298 313 335 15 353 349 347 343 340 336 338 342 343 344 344
269 272 275 279 279 276 289 299 298 324 223 179 114 67 228 252 263 233 232 244 264 329 311 56 31 4 341 314 300 53 80 343 352 39 359 360 6 320 339 4 1 8 23 344 320 306 294 277 234 60 352 27 41 358 347 348 323 299 276 322 315 324 301 288 278 276 282 288 283 272 262 269 291 294 312 7 354 345 350 347 341 337 336 340 343 345 348 349
263 266 269 273 270 273 286 282 271 250 195 168 94 122 204 235 247 195 204 239 143 157 330 354 50 62 318 314 335 12 72 31 1 41 344 331 328 308 58 24 352 3 55 53 304 308 316 278 262 333 339 91 93 354 332 334 302 302 343 307 292 293 280 280 276 270 281 288 287 283 276 288 302 288 312 9 348 342 344 339 335 334 336 339 342 348 352 351
257 261 265 264 264 271 273 258 236 208 196 159 131 214 211 221 210 185 194 221 170 124 79 9 16 129 290 312 307 314 7 2 5 33 326 298 354 50 99 52 2 9 8 81 263 325 350 289 290 322 324 123 25 344 318 279 259 344 339 299 302 288 274 305 297 288 290 281 275 277 281 292 297 286 4 9 342 338 335 333 336 336 337 338 342 350 351 347
252 259 262 260 263 266 257 241 218 198 188 151 177 230 203 186 199 197 202 174 167 87 94 176 228 151 171 230 268 265 342 349 339 12 335 237 15 76 103 355 354 356 342 355 323 335 18 296 294 325 348 313 338 344 328 304 31 42 282 293 319 301 302 320 291 296 300 282 280 277 278 282 273 284 3 352 332 327 325 331 338 336 338 340 342 345 345 344
247 253 258 256 255 251 234 223 205 190 179 157 214 234 191 206 236 205 189 177 145 105 117 214 229 82 173 182 239 265 269 286 243 44 36 195 193 80 72 12 342 346 345 26 74 302 350 291 287 320 356 331 330 1 9 327 330 321 304 309 303 268 299 315 278 294 300 287 290 293 290 283 276 321 339 328 318 314 321 334 335 336 345 346 343 341 339 340
234 239 251 245 239 233 215 195 186 183 185 190 206 224 205 238 232 179 172 223 185 137 182 212 174 227 240 209 241 291 200 177 167 167 209 216 175 101 40 11 340 339 348 43 61 334 4 276 280 309 335 326 315 90 81 329 316 319 326 333 325 297 315 319 287 284 296 295 296 305 291 276 292 331 320 307 302 310 332 336 333 341 350 344 339 335 333 334
217 229 252 234 232 229 196 171 172 180 193 230 214 224 236 74 195 186 185 224 211 154 169 170 162 190 205 257 250 194 134 190 168 181 221 238 204 129 53 25 350 324 355 37 34 351 329 272 274 296 314 302 293 353 354 297 292 298 306 321 327 330 335 325 296 285 306 298 292 300 286 279 304 313 294 296 305 324 336 330 327 336 337 332 330 329 328 330
203 221 244 225 224 212 179 162 188 184 173 214 219 210 240 328 154 185 178 179 167 87 123 148 154 192 181 196 227 173 93 228 188 200 214 225 331 111 115 62 36 21 65 20 314 257 217 211 271 283 287 283 289 303 299 286 287 307 301 327 343 338 338 319 297 300 303 282 280 282 277 283 321 288 285 307 317 324 323 317 315 318 320 323 321 322 326 327
208 223 231 222 209 189 172 167 293 229 215 249 254 232 246 272 206 196 193 171 123 78 53 129 171 196 165 157 165 157 142 199 182 193 214 195 89 111 105 63 45 40 59 359 310 284 181 144 320 292 287 286 287 291 287 304 31 358 312 327 340 320 304 284 281 292 288 282 292 282 272 286 339 291 300 317 317 316 312 308 302 303 312 316 314 317 323 324
222 229 228 224 203 184 180 201 201 209 241 265 284 267 244 224 226 224 196 231 44 122 117 158 191 165 108 100 111 177 229 249 176 165 154 172 141 131 86 39 34 43 46 279 273 320 314 327 28 334 307 305 311 331 325 340 3 336 314 327 332 318 309 302 295 295 287 290 297 288 283 299 304 299 312 317 310 308 307 306 301 296 304 309 311 316 318 320
232 256 246 229 207 196 205 231 168 169 207 204 246 238 211 205 217 198 159 112 82 125 144 141 101 99 100 93 74 32 226 182 220 167 128 18 183 159 47 11 8 3 308 267 256 301 288 263 75 13 297 298 305 315 313 322 337 322 310 321 326 317 307 303 304 299 290 291 291 283 286 293 295 306 316 307 302 302 305 307 304 299 301 304 308 311 314 319
167 251 264 232 215 212 226 250 198 143 154 170 243 225 185 183 201 170 132 111 112 106 96 76 72 76 74 76 54 337 302 186 280 357 31 340 232 193 355 357 344 313 298 274 290 38 300 239 192 204 242 269 281 291 299 307 310 299 301 313 311 297 291 293 296 285 283 288 283 276 287 295 300 311 309 300 299 304 304 303 301 301 303 304 307 307 310 317
164 183 192 181 229 220 233 253 220 196 164 178 193 191 175 185 234 146 124 141 164 129 83 50 48 89 129 118 93 277 294 325 310 327 323 277 219 305 336 351 334 311 300 120 60 32 314 274 260 236 250 262 271 284 292 297 294 291 299 305 293 285 286 291 284 279 284 290 285 289 298 298 301 307 303 299 301 301 299 298 297 299 300 302 304 306 313 318
189 216 207 203 217 190 213 235 210 200 212 202 198 149 167 180 185 179 169 137 164 158 123 72 40 81 158 142 123 267 322 336 303 296 334 319 325 336 341 358 12 70 114 84 14 10 284 279 277 267 270 273 278 287 289 290 288 287 293 294 287 284 289 289 281 281 286 285 288 302 300 294 297 301 298 296 297 296 298 299 297 296 295 296 300 309 315 316
193 211 209 208 210 171 175 212 192 187 200 208 206 191 181 188 193 191 140 114 221 260 187 179 175 157 156 131 120 147 227 283 294 269 126 335 317 332 334 330 26 119 103 13 333 293 267 276 279 281 282 285 292 292 285 286 285 287 294 292 287 288 290 287 283 287 290 287 291 297 294 291 295 295 292 294 296 297 299 298 296 293 291 292 300 310 314 313
199 207 198 191 189 152 150 176 175 179 200 208 220 215 184 192 196 186 132 150 178 228 171 164 166 166 182 163 138 176 216 197 204 232 210 358 309 302 282 289 303 315 317 329 300 276 271 270 293 306 292 291 300 299 290 288 289 296 298 290 287 292 295 293 296 302 299 293 293 293 292 293 294 292 295 298 298 298 298 297 296 293 290 293 304 309 310 309
203 206 199 180 124 167 169 161 161 173 205 203 211 201 187 207 194 162 102 240 186 201 179 153 144 141 154 177 193 228 233 201 196 235 251 257 265 266 256 264 290 314 309 294 257 272 264 270 302 313 284 289 305 309 305 303 303 302 295 289 291 300 304 303 304 304 299 295 296 295 293 293 296 299 302 301 299 298 295 295 297 295 294 300 305 306 306 305
198 200 200 198 213 191 179 155 160 189 202 201 205 198 191 204 177 153 142 338 145 156 153 149 144 120 129 191 225 238 231 229 260 277 282 274 268 265 259 261 267 265 267 286 284 249 208 251 293 289 279 297 305 308 312 314 311 301 290 292 301 305 302 301 298 294 292 294 298 298 293 292 298 300 299 298 298 295 293 296 298 299 300 302 301 300 300 300